Other Public Products
Issued by NWS Grand Forks, ND

Home | Current Version | Previous Version | Text Only | Print | Product List | Glossary On
Versions: 1 2 3 4 5 6 7 8 9 10 11 12 13 14 15 16 17 18 19 20 21 22 23 24 25 26 27 28 29 30 31 32 33 34 35 36 37 38 39 40 41 42 43 44 45 46 47 48 49 50
000
FPUS83 KFGF 221031
OPUFGF
PRAIRIE TO PINES WEATHER ROUNDUP
NATIONAL WEATHER SERVICE EASTERN NORTH DAKOTA/GRAND FORKS ND
400 AM CST MON DEC 22 2014

 **SATELLITE DATA USED TO AUGMENT SKY COVER AT AUTOMATED STATIONS**
 *****  WEATHER ACROSS EASTERN NORTH DAKOTA  *****

CITY           SKY/WX    TMP DP  RH WIND       PRES   REMARKS
GRAND FORKS    CLOUDY    34  33  96 SE8       29.52F
GRAND FORKS AF CLOUDY    32  32 100 SE6       29.53R FOG
GRAND CITY NWS   N/A     32 N/A N/A SE6         N/A
BUXTON           N/A     34  34  99 E5          N/A
DEVILS LAKE    CLOUDY    30  25  80 E3        29.48R
FARGO          CLOUDY    38  36  92 SE12      29.50F
WAHPETON ARPT  CLOUDY    34  32  93 SE12      29.50S
$$

 *****  WEATHER ACROSS CENTRAL AND WESTERN NORTH DAKOTA  *****

CITY           SKY/WX    TMP DP  RH WIND       PRES   REMARKS
JAMESTOWN      CLOUDY    32  31  96 E5        29.44F FOG
BISMARCK       FOG       28  28 100 SE6       29.45S VSB 3/4 WCI  22
MINOT          FOG       28  26  92 E6        29.45R VSB 3/4 WCI  22
MINOT AFB      FRZ DRZL  28  28 100 S5        29.46R VSB 1   WCI  23
GARRISON         N/A     28  28 100 E6        29.42S WCI  22
WILLISTON      LGT SNOW  33  31  92 W9        29.45R FOG
DICKINSON      CLOUDY    34  31  88 W21       29.41R WCI  22
HETTINGER      CLOUDY    35  32  88 NW16      29.45S
$$

 *****  OTHER OBSERVATIONS NORTHEAST NORTH DAKOTA  *****

CITY           SKY/WX    TMP DP  RH WIND       PRES   REMARKS
WALHALLA         N/A     32  32 100 E6        29.55S FOG
LANGDON        CLOUDY    32  30  93 SE12      29.50S FOG     WCI  23
CAVALIER       FOG       32  32 100 E5        29.55S VSB 1
GRAFTON        NOT AVBL
CANDO          CLOUDY    28  28 100 SE8       29.50S FOG     WCI  20
FORT TOTTEN      N/A     30  30 100 CALM      29.95S
ROLLA          CLOUDY    27  27 100 S15       29.49S FOG     WCI  15
RUGBY          CLOUDY    28  28 100 SE9       29.48S FOG     WCI  20
 ***** THE ABOVE OBSERVATIONS ARE NON NWS ARE NOT QUALITY
        CONTROLLED AND MAY MIS-REPORT RAIN FOR SNOW...
$$

 *****  OTHER OBSERVATIONS SOUTHEAST NORTH DAKOTA *****

CITY           SKY/WX    TMP DP  RH WIND       PRES   REMARKS
COOPERSTOWN    NOT AVBL
VALLEY CITY    LGT RAIN  32  32 100 E7        29.46F VSB 1/4
OAKES            N/A     32  32 100 E9        29.44S FOG     WCI  24
GWINNER        CLOUDY    36  36 100 SE12      29.46F
BUFFALO        NOT AVBL
WYNDMERE         N/A     36  37 100 SE9         N/A
 ***** THE ABOVE OBSERVATIONS ARE NON NWS ARE NOT QUALITY
       CONTROLLED AND MAY MIS-REPORT RAIN FOR SNOW...
$$

  *****  WEATHER ACROSS NORTHERN MINNESOTA  *****

CITY           SKY/WX    TMP DP  RH WIND       PRES   REMARKS
FLAG ISLAND    CLOUDY    34  30  86 SE3       29.62S FOG
WARROAD        CLOUDY    34  28  80 E7        29.61F FOG
ROSEAU         CLOUDY    34  30  86 E8        29.59F FOG
HALLOCK        CLOUDY    34  34 100 E10       29.55F
THF RVR FALLS  CLOUDY    34  34 100 E10       29.55F
HALSTAD          N/A     35  34  95 E8          N/A
FOSSTON        CLOUDY    34  32  93 E8        29.55S
BAUDETTE       CLOUDY    33  32  96 E8        29.62S FOG
WASKISH        CLOUDY    34  34 100 CALM      29.61S
CROOKSTON      MOCLDY    36  34  93 E8        29.54F FOG
$$
  *****  WEATHER ACROSS CENTRAL AND WEST MINNESOTA  *****

CITY           SKY/WX    TMP DP  RH WIND       PRES   REMARKS
BEMIDJI        CLOUDY    33  33  99 E8        29.57F FOG
PARK RAPIDS    CLOUDY    35  34  96 SE12      29.56F FOG
WADENA         DRIZZLE   34  34 100 SE9       29.55F
DETROIT LAKES  CLOUDY    36  36 100 SE10      29.53S FOG
MOORHEAD       CLOUDY    37  37 100 SE13      29.51S FOG
FERGUS FALLS   CLOUDY    36  36 100 SE15      29.54S FOG
ELBOW LAKE     LGT RAIN  35  35 100 SE17      29.52S WCI  25
MORRIS MN      FOG       36  36 100 SE16      29.51F VSB 1/2
STAPLES        CLOUDY    36  36 100 SE6       29.57F FOG
WHEATON        CLOUDY    34  34 100 SE13      29.51F FOG     WCI  25
$$
  *****  WEATHER ELSEWHERE ACROSS MINNESOTA  *****

CITY           SKY/WX    TMP DP  RH WIND       PRES   REMARKS
DULUTH         LGT SNOW  33  32  96 SE9       29.69S FOG
INTRNTL FALLS  CLOUDY    33  32  96 SE7       29.65S FOG
ELY            CLOUDY    34  32  93 SE8       29.69F FOG
CLOQUET        LGT SNOW  34  32  93 SE5       29.68F
BRAINERD       CLOUDY    36  35  96 SE13      29.61S FOG
HIBBING        CLOUDY    34  31  88 SE8       29.66F
ALEXANDRIA     CLOUDY    36  35  96 SE14      29.55F FOG
SAINT CLOUD    CLOUDY    39  36  89 SE16      29.61F FOG
MINNEAPOLIS    CLOUDY    37  35  92 S16       29.68F
$$

  *****  WEATHER ACROSS SOUTH DAKOTA  *****

CITY           SKY/WX    TMP DP  RH WIND       PRES   REMARKS
SIOUX FALLS    LGT RAIN  40  39  97 S14       29.49F
BROOKINGS      NOT AVBL
WATERTOWN      CLOUDY    36  35  96 S12       29.44F FOG
HURON          CLOUDY    35  35 100 S8        29.44S FOG
SISSETON         N/A     35  35 100 S9        29.46F
ABERDEEN       CLOUDY    36  34  92 S3        29.43F FOG
MITCHELL       LGT RAIN  38  37  97 S9        29.45F
PIERRE         CLOUDY    32  31  96 MISG      29.43F FOG
MOBRIDGE       CLOUDY    29  28  96 CALM      29.41S FOG
RAPID CITY     MOCLDY    41  27  57 NW29G37   29.51F
$$

  *****  SOME WEATHER IN NEARBY STATES *****

CITY           SKY/WX    TMP DP  RH WIND       PRES   REMARKS
GLASGOW MT     CLOUDY    33  27  78 NW22G30   29.56R WCI  21
GREAT FALLS MT MOCLDY    34  26  72 SW8       29.73R
CHEYENNE WY    MOCLDY    29  21  72 NW22G30   29.69R WCI  15
SCOTTSBLUFF NE CLOUDY    36  28  73 W13       29.67R
OMAHA NE       LGT RAIN  43  42  97 S17       29.58F
DES MOINES IA  CLOUDY    41  38  89 S14       29.69F
DAVENPORT IA   CLOUDY    36  30  79 SE15      29.84F
CHICAGO IL     CLOUDY    29  25  85 SE8       29.96F WCI  21
EAU CLAIRE WI  CLOUDY    36  33  89 S12       29.76F FOG
LA CROSSE WI   CLOUDY    38  33  82 SE12      29.80F
$$

  *****  SOME NATIONAL WEATHER *****

CITY           SKY/WX    TMP DP  RH WIND       PRES   REMARKS
LA GUARDIA NY  CLOUDY    36  31  82 N3        30.32S
RALEIGH NC     LGT RAIN  36  34  93 NE7       30.15S FOG
ATLANTA GA     DRZL/FOG  46  44  93 E10       30.03S VSB 1
NEW ORLEANS LA CLOUDY    58  56  93 E5        29.86F FOG
OKLAHOMA CITY  CLOUDY    48  45  87 S10       29.54F
ALBUQUERQUE NM MOCLDY    35  29  78 S8        29.92S
SALT LAKE CITY CLOUDY    41  35  79 CALM      30.03S
LOS ANGELES CA PTCLDY    54  53  97 CALM      30.03S
BOISE ID       LGT RAIN  39  39 100 W5        30.09R FOG
SEATTLE WA     PTCLDY    46  42  86 S3        30.15R
$$

*** WEATHER ACROSS MANITOBA...SASKATCHEWAN AND ONTARIO ***
                ***ONTARIO***

CITY           SKY/WX    TMP DP  RH WIND       PRES   REMARKS
GERALDTON      NOT AVBL
THUNDER BAY    CLOUDY    36  34  93 S6        29.80S
SIOUX LOOKOUT  LGT SNOW  30  30 100 S3        29.69  FOG
TORONTO        CLOUDY    32  25  74 SE9       30.21  WCI  24
BIG TROUT LK   FLURRIES  28  28 100 S5        29.74R WCI  23
PICKLE LAKE    NOT AVBL
DRYDEN         CLOUDY    32  30  93 S6        29.67S
KENORA         CLOUDY    30  30 100 SE8       29.64S FOG     WCI  23
$$
                *** MANITOBA***

CITY           SKY/WX    TMP DP  RH WIND       PRES   REMARKS
BRANDON        CLOUDY    28  28 100 E7        29.53S FOG     WCI  21
DAUPHIN        SNOW      25  25 100 E6        29.59R VSB 3/8 WCI  18
ISLAND LAKE    FLURRIES  28  27  93 CALM      29.69R
PILOT MOUND      N/A     28  28 100 CALM        N/A
THE PAS        FOG       25  25 100 NE5       29.67  VSB 3/4 WCI  19
THOMPSON       FRZ DRZL  19  18  93 NE7       29.75R WCI  10
WINNIPEG       CLOUDY    30  30 100 E9        29.61S FOG     WCI  22
LYNN LAKE      FLURRIES  12  10  92 NE7       29.76R WCI   2
CHURCHILL      FLURRIES  16  16 100 W6        29.83R WCI   7
GILLAM         FRZ DRZL  19  18  93 NE5       29.79  WCI  13
$$
                ***SASKATCHEWAN***

CITY           SKY/WX    TMP DP  RH WIND       PRES   REMARKS
ESTEVAN        FOG       28  28 100 E9        29.44R VSB 1/4 WCI  20
KINDERSLEY     CLOUDY    19  18  93 NW5       29.62  WCI  13
LLOYDMINSTER   FLURRIES  19  18  93 NW10      29.62R WCI   8
PRINCE ALBERT  CLOUDY    23  21  93 E6        29.63  WCI  16
REGINA         SNOW      23  23 100 NW9       29.53  VSB 1/2 WCI  13
YORKTON        CLOUDY    23  23 100 NE10      29.56R WCI  12


USA.gov is the U.S. government's official web portal to all federal, state and local government web resources and services.